Location: Rehoboth Beach
(38.7438°N, 75.1341°W)
Time: 14:58:40
(UTC-05:00)

Hubble Space Telescope - Visible Passes

Search period start: 30 January 2015 00:00
Search period end: 09 February 2015 00:00
Orbit: 544 x 548 km, 28.5° (Epoch: 30 January)

Date Brightness Start Highest point End Pass type
(mag) Time Alt. Az. Time Alt. Az. Time Alt. Az.
30 Jan 3.1 18:05:42 10° SSW 18:07:58 14° SSE 18:10:18 10° SE visible
30 Jan 3.2 19:45:39 10° SW 19:47:07 16° SSW 19:47:07 16° SSW visible
31 Jan 3.0 17:57:15 10° SSW 17:59:52 16° S 18:02:31 10° SE visible
31 Jan 3.0 19:37:34 10° SW 19:39:39 18° SSW 19:39:39 18° SSW visible
01 Feb 3.0 17:48:55 10° SW 17:51:45 18° S 17:54:37 10° SE visible
01 Feb 2.9 19:29:31 10° SW 19:32:13 19° S 19:32:13 19° S visible
02 Feb 2.9 19:21:32 10° SW 19:24:25 18° S 19:24:47 18° S visible
03 Feb 3.0 19:13:37 10° SW 19:16:17 16° S 19:17:24 15° S visible
04 Feb 3.2 19:05:48 10° SW 19:08:09 15° SSW 19:10:04 11° SSE visible
05 Feb 3.4 18:58:08 10° SW 19:00:01 13° SSW 19:01:49 10° S visible
06 Feb 3.6 18:50:58 10° SSW 18:51:50 10° SSW 18:52:38 10° S visible
